Location: *
(45.1961°N, 1.9694°E)
Time: 14:13:03
(UTC+00:00)

Cosmos 2322 Rocket - Pass Details

Date: 25 August 2019
Orbit: 834 x 849 km, 71.0° (Epoch: 19 September)

Event Time Altitude Azimuth Distance (km) Brightness Sun altitude
Rises 22:32:12 0° 331° (NNW) 3,399 6.5 -31.2°
Reaches altitude 10° 22:34:40 10° 329° (NNW) 2,459 5.5 -31.4°
Enters shadow 22:39:05 52° 300° (WNW) 1,037 2.8 -31.7°
